THOR ABLESTAR DEB, 463

Orbit data source: Space-Track

THOR ABLESTAR DEB, 463 is space debris in LEO originally from a launch on Thu, 29 Jun 1961 UTC launched from the Air Force Eastern Test Range (AFETR). Debris objects in space refer to the collection of defunct objects orbiting the Earth. Examples of debris include non-operational satellites, rocket bodies, and fragments generated from explosions, collisions, or faulty payload assembly.

Loading next visibility...
Identifier
463, 1961-015EZ
Orbit
LEO
Last TLE update
18 hours ago
Origin
Manufacturer
Unknown
Mission
Spacecraft
Bus & Motor
Unknown
Mass
Unknown
Launch date (UTC)
1961-06-29 (64 years ago)
Launch vehicle
Unknown
Launch site
Air Force Eastern Test Range (AFETR)
Object type
Payload
Rocket body
Debris
Shape & HBR
Unknown
Radar Cross Section
Small (<0.1 m²)

Expand to show TLE details & history

TLE from 18 hours ago
0 THOR ABLESTAR DEB
1 00463U 61015EZ  25129.22056460  .00003555  00000-0  84261-3 0  9992
2 00463  66.7682  67.6753 0048317 215.9417 143.8442 14.54475763310327
Epoch: 2025-05-09T05:17Z
Definitive object data (Epoch: 2025-05-09T05:17:36.781Z)
Latitude
-0.00001°
Longitude
120.99221°
Altitude
740.921 km
Speed
7.47 km/s
True Right ascension
04h 30m 42s
True Declination
0° 00' 00"
Sunlit
Object was in daylight at TLE epoch
Visualization TLE readout
Latitude
-24.91953°
Longitude
107.51311°
Altitude
735.285 km
Speed
7.478 km/s
Apparent Right ascension
00h 28m 49s
Apparent Declination
-50° 58' 57"
Sunlit
Object is in daylight
Visualization observer readout
Local Sidereal Time
07:30:54
Azimuth
231.195° WSW
Elevation
-38.887°
Doppler factor
1
Orbital elements
Apogee altitude
743.661 km
Perigee altitude
675.171 km
Semi-major axis
7,087.553 km
Eccentricity
0.0048317
Inclination
66.7682°
RAAN
67.6753°
Arg. of periapsis
215.9417°
True anomaly
144.16927°
Mean anomaly
143.8442°
Eccentric anomaly
144.00689°
Mean motion
3.63746 °/min
BSTAR
0.00084261
Orbital period
98.97 mins
Loading maneuver chart data...
Loading SW <> Apogee altitude chart data...

THOR ABLESTAR DEB Visibility forecast

Observer location: undefined°, undefined°

Span
Click to sort rows by Start time (UTC) header in descending order
Start Az.
Max El. time (UTC)
Max El. Az.
Max El.
End time (UTC)
End Az.
4 mins2025-05-10 04:56:18.473Z21.179° NNE2025-05-10 04:58:18.473Z46.845° ENE13.139°2025-05-10 05:00:18.473Z71.111° E
7 mins2025-05-10 06:37:18.473Z332.632° NNW2025-05-10 06:40:18.473Z21.051° NNE44.914°2025-05-10 06:44:18.473Z150.646° SSE
8 mins2025-05-10 21:02:18.473Z193.9° SSW2025-05-10 21:06:18.473Z89.987° E41.969°2025-05-10 21:10:18.473Z35.83° NE
5 mins2025-05-10 22:46:18.473Z287.886° WNW2025-05-10 22:48:18.473Z316.921° NNW17.969°2025-05-10 22:51:18.473Z355.272° N
|